www.pogodaiklimat.ru

Погода и климат >> Архив погоды >> Россия >> Иркутская область >> Тулун


АРХИВ ПОГОДЫ в Тулуне

Время (UTC), дата Ветер
(напр.,м/с)
 
Видим.   Явления Облачность Т
(С)
Тd
(С)
f
(%)
Тe
(С)
Тes
(С)
Комфортность P
(гПа)
Po
(гПа)
Тmin
(С)
Tmax
(С)
R
(мм)
R24
(мм)
S
(см)
15 12.01 штиль 0 н/о 9/0
[Ac trans Ci sp]
-20.2 -22.4 83 -20 -20 1028.3 958.7
18 12.01 С 1 н/о {ливн. осадки} 9/3 600 м
[Cb calv Ac trans Ci sp]
-19.5 -21.6 83 -22 -22 1030.6 961.1
21 12.01 СЗ 1 н/о 8/0
[Ac lent]
-17.5 -19.4 85 -20 -20 1033.8 964.6
00 13.01 СЗ 2 н/о 4/0
[Ci sp]
-19.4 -22.1 79 -25 -25 1038.5 968.4 -21.7 0.0 21
03 13.01 З 3 20 км 4/0
[Ci sp]
-20.1 -24.4 68 -28 -27 1042.1 971.7 -20.9
06 13.01 З 2 20 км 9/0
[Ci sp]
-18.8 -24.5 61 -24 -23 1043.6 973.4
09 13.01 З 2 20 км 9/0
[Ac trans Ci sp]
-19.3 -25.1 60 -25 -25 1045.5 975.0
12 13.01 штиль 0 н/о 8/0
[Ci sp]
-24.2 -26.5 81 -24 -24 1048.5 976.5 -18.4
15 13.01 штиль 0 н/о 9/0
[Ci sp]
-24.2 -26.5 81 -24 -24 1050.1 977.9
18 13.01 В 1 н/о 6/0
[Ci sp]
-27.3 -29.6 81 -31 -31 опасность
обморожения
1051.8 978.7
21 13.01 штиль 0 н/о 9/0
[Ci sp]
-29.5 -32.3 77 -30 -30 1052.5 978.7
00 14.01 штиль 0 н/о 4/0
[Ci sp]
-33.2 -36.6 71 -33 -33 опасность
обморожения
1053.7 978.7 -33.7 21
03 14.01 СЗ 1 20 км 9/0
[Ci sp]
-30.7 -34.1 72 -35 -34 опасность
обморожения
1052.1 977.9 -34.0
06 14.01 Ю 2 20 км 9/0
[Ci sp]
-22.5 -25.6 76 -29 -28 1047.1 975.6
09 14.01 Ю 2 20 км 10/0
[Cs]
-20.6 -25.3 66 -27 -27 1044.6 973.8
12 14.01 Ю 2 н/о 10/0
[Ac trans Cs]
-20.9 -25.1 69 -27 -27 1042.7 972.0 -20.6
15 14.01 Ю 2 н/о 9/0
[Ac trans Ci sp]
-20.1 -24.3 69 -26 -26 1040.5 970.2
18 14.01 Ю 1 н/о 9/0
[Ac trans Ci sp]
-20.8 -24.4 73 -24 -24 1038.8 968.4
21 14.01 Ю 2 н/о 9/0
[Ac trans Ci sp]
-19.7 -23.5 72 -25 -25 1036.4 966.4
00 15.01 Ю 1 н/о 5/0
[Ci fib]
-20.9 -24.0 76 -24 -24 1035.5 965.2 -21.2 21
03 15.01 Ю 1 20 км 5/0
[Ci sp]
-19.8 -24.2 68 -23 -22 1033.8 963.9 -21.9
06 15.01 Ю 1 20 км ясно -14.0 -22.3 49 -16 -15 1029.8 961.8
09 15.01 ЮВ 1 20 км 3/0
[Ci fib]
-13.7 -20.9 55 -16 -16 1027.6 959.8
12 15.01 штиль 0 н/о ясно -16.9 -21.9 65 -17 -17 1026.5 957.9 -12.0
15 15.01 З 1 н/о ясно -17.1 -22.0 66 -20 -20 1024.8 956.2
18 15.01 Ю 3 н/о 3/0
[Ci sp]
-14.0 -22.0 51 -20 -20 1022.0 954.5
21 15.01 З 1 н/о 3/0
[Ci sp]
-20.1 -23.6 74 -23 -23 1023.4 954.2
00 16.01 штиль 0 н/о 3/0
[Ci sp]
-22.8 -25.0 82 -23 -23 1024.4 954.4 -22.8 21
03 16.01 штиль 0 20 км 5/0
[Ci fib]
-21.4 -24.9 73 -21 -21 1024.9 955.2 -23.7
06 16.01 СЗ 1 20 км 3/0
[Ci fib]
-15.4 -23.1 52 -18 -16 1023.0 955.0
09 16.01 штиль 0 20 км 3/0
[Ac trans Ci sp]
-13.3 -22.3 47 -13 -13 1023.0 955.6
12 16.01 штиль 0 н/о 8/3 600 м
[Cb calv Ac trans Ci sp]
-16.3 -22.5 59 -16 -16 1024.1 955.8 -11.3
15 16.01 СВ 2 н/о 9/4 600 м
[Cb calv Ac trans Ci sp]
-15.4 -19.1 73 -20 -20 1024.7 956.6
18 16.01 штиль 0 н/о 9/3 600 м
[Sc Ac trans Ci sp]
-15.1 -20.7 62 -15 -15 1025.4 957.3
21 16.01 В 1 н/о 9/0
[Ac trans Ci sp]
-15.7 -20.0 69 -18 -18 1026.3 958.0
00 17.01 ЮЗ 1 н/о 9/0
[Ac trans Ci sp]
-17.5 -21.4 72 -20 -20 1028.2 959.4 -17.6 21
03 17.01 штиль 0 20 км слаб. снег 10/0
[As trans]
-16.2 -19.4 76 -16 -16 1029.4 960.8 -18.3
06 17.01 З 1 20 км {снег} 5/0
[Ac lent]
-9.0 -13.2 72 -11 -10 1028.1 961.4
09 17.01 З 1 20 км 8/1 600 м
[Sc Ac trans Ci sp]
-8.6 -12.4 74 -11 -11 1028.9 962.2
12 17.01 З 2 н/о 9/3 600 м
[Sc Ac trans]
-9.3 -13.3 73 -14 -14 1030.8 963.9 -7.7 0.0
15 17.01 ЮЗ 1 н/о 9/4 600 м
[Sc Ac trans]
-11.1 -13.7 81 -13 -13 1032.6 965.1
18 17.01 З 1 н/о слаб. ливневой снег 9/8 600 м
[Cb calv Ac trans]
-10.6 -12.9 83 -13 -13 1033.1 965.7
21 17.01 З 1 н/о слаб. ливневой снег 9/8 600 м
[Cb calv Ac trans]
-11.7 -13.9 84 -14 -14 1034.0 966.3
00 18.01 З 1 н/о {ливн. осадки} 9/3 600 м
[Sc Ac trans Ci sp]
-10.8 -12.7 86 -13 -13 1034.7 967.1 -12.0 0.0 21
03 18.01 З 1 20 км слаб. ливневой снег 9/5 600 м
[Cb calv Ac trans]
-9.5 -12.3 80 -12 -12 1036.2 968.8
06 18.01 СЗ 2 20 км слаб. ливневой снег 9/6 600 м
[Cb calv Ac trans]
-7.9 -12.0 72 -12 -12 1036.1 969.2
09 18.01 СЗ 1 20 км {ливн. осадки} 9/5 600 м
[Cb calv Ac trans]
-7.8 -11.6 74 -10 -10 1036.6 969.7
12 18.01 штиль 0 н/о {ливн. осадки} 9/4 600 м
[Cb calv Ac trans]
-9.1 -11.9 80 -10 -10 1037.7 970.4 -7.1 0.0
15 18.01 штиль 0 н/о 9/0
[Ac trans]
-10.4 -12.3 86 -11 -11 1038.5 970.8
18 18.01 штиль 0 н/о 8/0
[Ci sp]
-13.1 -13.9 94 -13 -13 1038.3 969.9
21 18.01 штиль 0 н/о 9/0
[Ci sp]
-14.7 -16.0 90 -15 -15 1037.0 968.3
00 19.01 Ю 2 н/о 3/0
[Ci sp]
-14.4 -15.8 89 -19 -19 1035.5 967.0 -15.7 21
03 19.01 Ю 3 20 км 9/0
[Ac trans Ci sp]
-13.6 -15.7 84 -20 -20 1034.3 966.0
06 19.01 Ю 4 20 км 9/0
[Ac trans Ci sp]
-11.0 -15.9 67 -18 -17 1030.8 963.5
09 19.01 Ю 2 20 км 9/3 600 м
[Sc Ac trans Ci sp]
-9.7 -15.1 65 -14 -14 1028.5 961.6
12 19.01 Ю 1 н/о 6/0
[Ci sp]
-13.7 -16.9 77 -16 -16 1028.2 960.4 -9.1

 

Местоположение метеостанции Тулун (Иркутская область, Россия): широта 54.60 долгота 100.60 высота над уровнем моря 522 м.

В архиве по умолчанию представлена погода в Тулуне за последнюю неделю. Архивные данные за месяц целиком и за предыдущие месяцы, начиная с января 2011 года, Вы можете получить, выбрав интересующий диапазон дат из раскрывающегося списка и нажав кнопку "Ввод!".


*Определитесь, кто Вы:
робот инопланетянин человек

Внимание! Время в таблицах - всемирное. Для получения местного времени необходимо прибавить поправку, которая равна 8 ч.

Смотрите также архив погоды в соседних городах и на ближайших метеорологических станциях:

Погода в Тангуе (Иркутская область, Россия) (90 км)
Погода в Нижнеудинске (Иркутская область, Россия) (106 км)
Погода в Зиме (Иркутская область, Россия) (118 км)
Погода в Хадаме (Иркутская область, Россия) (137 км)
Погода в Калтуке (Иркутская область, Россия) (139 км)
Погода в Сараме (Иркутская область, Россия) (144 км)
Погода в Балаганске (Иркутская область, Россия) (169 км)
Погода в Заларях (Иркутская область, Россия) (170 км)
Погода в Нерое (Иркутская область, Россия) (179 км)
Погода в Алыгджере (Иркутская область, Россия) (189 км)

Пояснения к столбцам:

Ветер - указаны скорость ветра в м/с - средняя за 10 мин, порывы в срок и между сроками (в фигурных скобках) и направление, откуда дует ветер: С - северный, СВ - северо-восточный, В - восточный, ЮВ - юго-восточный, Ю - южный, ЮЗ - юго-западный, З - западный, СЗ - северо-западный.
Видимость - горизонтальная дальность видимости в метрах или километрах. При видимости от 1 до 10 км при отсутствии осадков обычно наблюдается дымка, при ухудшении видимости до 1 км и менее - туман. В сухую погоду видимость может ухудшаться дымом, пылью или мглою.
Явления - указаны атмосферные явления, наблюдавшиеся в срок или в последний час перед сроком; фигурными скобками обозначены явления, наблюдавшиеся между сроками (за 1-3 часа до срока); квадратными скобками обозначены град или гололедные отложения с указанием их диаметра в мм.
Облачность - указаны через наклонную черту общая и нижняя облачность в баллах и высота нижней границы облаков в метрах; квадратными скобками обозначены формы облаков: Ci - перистые, Cs - перисто-слоистые, Cc - перисто-кучевые, Ac - высококучевые, As - высокослоистые, Sc - слоисто-кучевые, Ns - слоисто-дождевые, Cu - кучевые, Cb - кучево-дождевые. Подробнее классификацию облаков см. в Атласе облаков (PDF).
T - Температура воздуха - температура, измеренная на высоте 2 м над землей.
Td - Температура точки росы - температура, при понижении до которой содержащийся в воздухе водяной пар достигнет насыщения.
f - Относительная влажность воздуха - влажноcть воздуха, измеренная на высоте 2 м над землей.
Te - Эффективная температура - температура, которую ощущает одетый по сезону человек в тени. Характеристика душности погоды. При расчете учитывается влияние влажности воздуха и скорости ветра на теплоощущения человека.
Tes - Эффективная температура на солнце - температура, которую ощущает человек, с поправкой на солнечный нагрев. Характеристика знойности погоды. Зависит от высоты солнца над горизонтом, облачности и скорости ветра. Ночью, в пасмурную погоду, а также при ветре 12 м/с и более поправка равна нулю.
P - Атмосферное давление - приведенное к уровню моря атмосферное давление.
Po - Атмосферное давление - измеренное на уровне метеостанции атмосферное давление.
Tmin - Минимальная температура - минимум температуры воздуха на высоте 2 м над землей.
Tmax - Максимальная температура - максимум температуры воздуха на высоте 2 м над землей.
R - Количество осадков - Количество выпавших осадков за период времени, мм. При наведении курсора мыши на число - период времени, за который выпало указанное количество осадков.
R24 - Количество осадков - Количество выпавших осадков за 24 часа, мм.
S - Снежный покров - Высота снежного покрова, см. При наведении курсора мыши на число - состояние снежного покрова и степень покрытия местности в баллах.